Simultaneous Nadir Overpasses (SNOs) Predictions

Prediction of SNOs between GOES-14 and NOAA-20 Satellite Orbit:

Table of predicted SNOs for the next 14.0 days since TLE Epoch: 6/29/2020
Index Date Time (GOES-14) GOES-14 Lat,Lon NOAA-20 Lat,Lon Distance(km) Time Diff (sec)
1 06/30/2020 08:36:37 -0.17,-104.22 0.70,-108.15 448.05 80
2 07/01/2020 08:20:31 -0.16,-104.22 -0.29,-103.62 69.34 80
3 07/03/2020 20:23:43 0.18,-104.43 0.20,-104.40 3.58 80
4 07/06/2020 08:24:05 -0.20,-104.25 -0.02,-105.14 101.09 80
5 07/07/2020 08:07:59 -0.18,-104.25 -1.01,-100.60 416.46 80
6 07/08/2020 20:27:16 0.22,-104.46 -0.13,-105.91 166.21 80
7 07/09/2020 20:11:11 0.20,-104.47 0.92,-101.39 351.67 80
8 07/11/2020 08:30:17 -0.24,-104.29 0.32,-106.65 269.51 80
9 07/12/2020 08:14:13 -0.22,-104.30 -0.73,-102.12 248.37 80
